460  
ASUS43 KFSD 020210  
RWRSD  
 
WEATHER ROUNDUP FOR SOUTH DAKOTA  
NATIONAL WEATHER SERVICE SIOUX FALLS SD  
900 PM CDT SUN AUG 01 2021  
 
NOTE: "FAIR" INDICATES FEW OR NO CLOUDS BELOW 12,000 FEET WITH NO  
SIGNIFICANT WEATHER AND/OR S TO VISIBILITY
.  
 
 
SDZ001>005-009-010-012>017-020300-  
NORTHWEST AND NORTH CENTRAL SOUTH DAKOTA  
 
CITY SKY/WX TMP DP RH WIND PRES REMARKS
 
BUFFALO N/A 83 39 21 E12 30.14F  
FAITH N/A 79 47 32 SE9 30.16S  
MOBRIDGE CLEAR 76 54 46 E8 30.14S HAZE  

 
 
SDZ012>016-024>037-041>051-057-063-072>074-020300-  
SOUTHWEST AND SOUTH CENTRAL SOUTH DAKOTA  
 
CITY SKY/WX TMP DP RH WIND PRES REMARKS
 
RAPID CTY ARPT CLEAR 75 46 35 NE6 30.21S  
PIERRE CLEAR 74 54 49 SE7 30.14F  
CUSTER PTCLDY 70 39 32 NE5 30.36S  
ELLSWORTH AFB CLEAR 79 45 29 SE5 30.21S  
PHILIP CLEAR 79 48 33 E8 30.15S  
PINE RIDGE CLEAR 78 39 24 NE6 30.21R  
SPEARFISH FAIR 72 48 43 S8 30.25S  
WINNER CLEAR 73 51 46 E8 30.19S  

 
 
SDZ004>011-016>023-039-040-020300-  
NORTHEAST SOUTH DAKOTA  
 
CITY SKY/WX TMP DP RH WIND PRES REMARKS
 
ABERDEEN CLEAR 68 53 58 SE5 30.18S  
WATERTOWN CLEAR 69 53 56 E5 30.20S HAZE  
BROOKINGS CLEAR 71 53 52 E7 30.20S  
SISSETON N/A 65 58 78 S3 30.18S  

 
 
SDZ017-020-022-023-036>040-048>070-020300-  
SOUTHEAST SOUTH DAKOTA  
 
CITY SKY/WX TMP DP RH WIND PRES REMARKS
 
SIOUX FALLS PTCLDY 71 53 52 E8 30.19S  
HURON CLEAR 71 53 52 SE3 30.18S  
CHAMBERLAIN CLEAR 68 58 70 SE5 30.18S  
MITCHELL CLEAR 70 59 68 CALM 30.19S  
YANKTON CLEAR 72 53 51 E3 30.19R  

 
 
ABBREVIATIONS USED IN REMARKS  
TC - TEMPERATURE IN CELSIUS  
WCI - WIND CHILL INDEX  
HX - HEAT INDEX  
VSB - VISIBILITY  
 
 
 
CLICK HERE TO GO TO PREVIOUS BULLETINS.

The Nexlab SD Page Main Text Page